This is the latest recevied weather packets stored in our database for station/object EA3CH. If no packets are shown the sender has not sent any weather packets the latest 10 day(s).
| Time | Temp. | Humidity | Pressure | Rain* | Wind** | Luminosity | Snow |
|---|---|---|---|---|---|---|---|
| 1787891404 | 17.22° C | 64% | 1017.1 hPa | 0 mm | - | 0 W/m² | - |
| 1787890504 | 17.78° C | 64% | 1017.1 hPa | 0 mm | - | 0 W/m² | - |
| 1787889604 | 18.33° C | 62% | 1016.8 hPa | 0 mm | - | 0 W/m² | - |
| 1787888705 | 18.89° C | 52% | 1016.6 hPa | 0 mm | - | 0 W/m² | - |
| 1787888704 | 18.33° C | 62% | 1016.8 hPa | 0 mm | - | 0 W/m² | - |
| 1787887804 | 18.89° C | 61% | 1016.4 hPa | 0 mm | - | 0 W/m² | - |
| 1787886906 | 19.44° C | 50% | 1016.2 hPa | 0 mm | - | 0 W/m² | - |
| 1787886904 | 19.44° C | 59% | 1016.5 hPa | 0 mm | - | 0 W/m² | - |
| 1787886012 | 20° C | 49% | 1016.3 hPa | 0 mm | - | 0 W/m² | - |
| 1787886012 | 19.44° C | 58% | 1016.4 hPa | 0 mm | - | 0 W/m² | - |
| 1787885104 | 19.44° C | 58% | 1016.3 hPa | 0 mm | - | 0 W/m² | - |
| 1787884206 | 20.56° C | 47% | 1016.4 hPa | 0 mm | - | 0 W/m² | - |
| 1787884204 | 20° C | 56% | 1016.6 hPa | 0 mm | - | 0 W/m² | - |
| 1787883306 | 20.56° C | 47% | 1016.3 hPa | 0 mm | - | 0 W/m² | - |
| 1787883303 | 20° C | 57% | 1016.4 hPa | 0 mm | - | 0 W/m² | - |
| 1787882404 | 20° C | 58% | 1016.8 hPa | 0 mm | - | 0 W/m² | - |
| 1787881504 | 19.44° C | 60% | 1016.7 hPa | 0 mm | - | 0 W/m² | - |
| 1787880606 | 20.56° C | 51% | 1016.6 hPa | 0 mm | - | 0 W/m² | - |
| 1787880604 | 20° C | 61% | 1016.9 hPa | 0 mm | - | 0 W/m² | - |
| 1787879704 | 20° C | 61% | 1016.7 hPa | 0 mm | - | 0 W/m² | - |
| 1787878804 | 20° C | 62% | 1016.7 hPa | 0 mm | - | 0 W/m² | - |
| 1787877904 | 20.56° C | 62% | 1016.1 hPa | 0 mm | - | 0 W/m² | - |
| 1787877006 | 21.11° C | 53% | 1015.5 hPa | 0 mm | - | 0 W/m² | - |
| 1787877004 | 20.56° C | 63% | 1015.7 hPa | 0 mm | - | 0 W/m² | - |
| 1787876104 | 21.11° C | 62% | 1016 hPa | 0 mm | - | 0 W/m² | - |
* Rain latest hour (hover to see other rain measurements)
** Current wind speed in m/s (hover to see current wind gust speed)